Regional Weather Roundup
Issued by NWS San Diego, CA

Home | Current Version | Previous Version | Text Only | Print | Product List | Glossary On
Versions: 1 2 3 4 5 6 7 8 9 10 11 12 13 14 15 16 17 18 19 20 21 22 23 24 25 26 27 28 29 30 31 32 33 34 35 36 37 38 39 40 41 42 43 44 45 46 47 48 49 50
000
ASUS46 KSGX 281011
RWRSGX

SAN DIEGO HOURLY WEATHER ROUNDUP
NATIONAL WEATHER SERVICE SAN DIEGO CA
300 AM PDT TUE APR 28 2015

NOTE: "FAIR" INDICATES FEW OR NO CLOUDS BELOW 12,000 FEET WITH NO
SIGNIFICANT WEATHER AND/OR OBSTRUCTIONS TO VISIBILITY.

CAZ042-043-060-061-PZZ750-775-281100-

GREATER SAN DIEGO AREA

CITY           SKY/WX    TMP DP  RH WIND       PRES   REMARKS
LINDBERGH FLD  CLEAR     64  38  38 N6        29.95F
POINT LOMA       N/A     65  42  42 NW5         N/A
CHULA VISTA      N/A     58  43  58 CALM      29.86F
IMPERIAL BEACH CLEAR     63  43  48 NE6       29.93F
BROWN FIELD    CLEAR     60  40  47 SE9       29.94F
MIRAMAR MCAS   CLEAR     57  36  45 NE5       29.94F
MONTGOMERY FLD CLEAR     60  38  43 CALM      29.94F

$$

NORTH SAN DIEGO COUNTY

CITY           SKY/WX    TMP DP  RH WIND       PRES   REMARKS
CAMP PENDLETON CLEAR     52  38  58 CALM      29.95S
OCEANSIDE AP   CLEAR     53  39  59 NE6       29.93F
VISTA            N/A     55  40  58 CALM      29.93F
CARLSBAD       CLEAR     62  39  42 E3        29.93F
FALLBROOK        N/A     60  36  40 CALM      29.95S
SAN MARCOS       N/A     62  40  44 CALM      29.93S
POWAY            N/A     52  42  69 CALM      29.96F

$$

EAST SAN DIEGO COUNTY

CITY           SKY/WX    TMP DP  RH WIND       PRES   REMARKS
RAMONA         CLEAR     44  38  79 CALM      29.98S
SANTEE LAKES     N/A     53  40  63 CALM      29.95F
LA MESA          N/A     61  38  43 E5        29.88F
DESCANSO N       N/A     48  31  51 CALM      29.87F
MT. LAGUNA OBS   N/A     51  15  23 N9        29.71
CAMPO            N/A     41  28  60 NE8       29.98F

$$

ORANGE COUNTY AND THE LOS ANGELES BASIN

CITY           SKY/WX    TMP DP  RH WIND       PRES   REMARKS
JOHN WAYNE AP  CLEAR     63  38  39 CALM      29.94S
LAKE FOREST FR   N/A     62  28  28 CALM      29.83S
SANTA ANA        N/A     59  42  53 CALM      29.89F
HUNTINGTON BCH   N/A     56  48  76 CALM      29.96F
LOS ALAMITOS   FAIR      57  45  65 CALM      29.94F
FULLERTON      CLEAR     61  36  39 CALM      29.93F
LONG BEACH     CLEAR     62  47  57 N3        29.94F
L.A. AP        CLEAR     61  44  53 NE3       29.95F
L.A. DOWNTOWN  CLEAR     62  41  46 CALM      29.94F

$$

THE INLAND EMPIRE

CITY           SKY/WX    TMP DP  RH WIND       PRES   REMARKS
CORONA         CLEAR     47  38  71 CALM      29.97F
CHINO          CLEAR     54  40  59 NW5       29.98F
ONTARIO        CLEAR     59  37  44 NE5       29.97F
RIVERSIDE AP   CLEAR     57  39  51 E3        29.97F
RIV CYN CREST    N/A     59  46  60 SE3         N/A
MARCH ARB      CLEAR     51  32  48 CALM      29.98F
HORSETHIEF CYN   N/A     58  30  34 S3        29.93F
MENIFEE          N/A     55  40  57 CALM      30.04S
HEMET EAST       N/A     58  22  24 CALM      29.97F
FRENCH VALLEY  FAIR      54  34  47 E3        29.99F
TEMECULA         N/A     57  38  49 NW2       29.95S

$$

SAN BERNARDINO AND RIVERSIDE COUNTY MOUNTAINS

CITY           SKY/WX    TMP DP  RH WIND       PRES   REMARKS
BIG BEAR AP    CLEAR     28  14  54 CALM      30.23R
ANGELUS OAKS     N/A     44  22  42 CALM      29.94R

$$

SOUTHERN DESERT INCLUDING THE COACHELLA VALLEY

CITY           SKY/WX    TMP DP  RH WIND       PRES   REMARKS
PALM SPRINGS   CLEAR     73  26  17 NW10      29.94F
THOUSAND PALMS   N/A     72  22  15 NW7       29.91S
THERMAL        CLEAR     61  27  27 VRB3      29.88F
BLYTHE         CLEAR     68  22  17 W8        29.90S
IMPERIAL AP    CLEAR     61  30  31 W5        29.87F
EL CENTRO NAS  CLEAR     62  22  21 W9        29.90S
YUMA AZ        CLEAR     65  35  33 SE3       29.89S

$$

UPPER DESERT

CITY           SKY/WX    TMP DP  RH WIND       PRES   REMARKS
VICTORVILLE AP CLEAR     48  14  25 CALM      30.06S
HESPERIA         N/A     53  19  26 W5        30.13F
APPLE VALLEY     N/A     47  20  34 CALM      30.12S
PALMDALE       CLEAR     50  19  29 S6        30.05F
LANCASTER      CLEAR     49  22  34 CALM      30.05F
EDWARDS AFB    CLEAR     45   7  21 SE2       30.03F
DAGGETT        CLEAR     57  15  19 W10       30.02S
29 PALMS N     CLEAR     53  20  27 CALM      30.08S
NEEDLES        CLEAR     72  26  18 NW7       29.94R

$$

REGIONAL REPORTS

CITY           SKY/WX    TMP DP  RH WIND       PRES   REMARKS
SANTA BARBARA  CLEAR     55  52  89 SE3       29.93F
SANDBERG       CLEAR     58  36  43 NW7       30.13F
MT. WILSON       N/A    N/A N/A N/A MISG        N/A
LAS VEGAS NV   CLEAR     64  33  31 S10       30.01S
PHOENIX AZ     CLEAR     71  45  39 E9        29.91R
TIJUANA        CLEAR     61  36  39 E7        29.96F
ENSENADA NW      N/A     66  32  28 CALM      29.90F

$$

OFFSHORE ISLANDS

CITY           SKY/WX    TMP DP  RH WIND       PRES   REMARKS
CATALINA ARPT  CLEAR     65  38  36 NW10      29.99F
SAN NICOLAS IS CLEAR    N/A N/A N/A W13       29.95F

$$

MARINE AND OFFSHORE BUOY REPORTS

STATION/POSITION SKY/WX   TEMP    WIND        PRES    SWELL
                          AIR SEA DIR/SP/G            HT/PER/DIR
                          (F)     (DEG/KT/KT) (MB)    (FT/S/D)
TANNER BANKS               59 61  330/ 14/ 16 1014.3F   5/300/ 8
S CLEMENTE BASIN           63 63  270/  4/  6 1013.4F   3/280/ 8
SAN NICOLAS IS.               58                N/A     2/210/14
SO. S. ROSA ISLA           54 58  310/ 19/ 23 1013.8F
W. S. BARBARA CH           51 52  320/ 23/ 27 1013.8F   3/300/ 9
S. MONICA BASIN            62 63  340/ 14/ 16 1013.4F   2/ 10/17
S PEDRO CHANNEL               62                N/A
DANA POINT                    62                N/A     2/190/14
OCEANSIDE OFFSHR              63                N/A     2/210/13
TORREY PINES OTR              64                N/A     2/210/17
LA JOLLA 1                 64 63   CALM  /  3 1013.8F
MISSION BAY BUOY              64                N/A     2/220/17
SAN DIEGO BAY                 68              1014.2F
POINT LOMA SOUTH              65                N/A     2/220/18

$$



USA.gov is the U.S. government's official web portal to all federal, state and local government web resources and services.